Погода в Хвойной

Россия / Новгородская область     58°53′47″N   34°29′29″E
темп.,
°C
ветер,
м/с
пор.,
м/с
влажн.,
%
обл.,
%
осадки,
мм/ч
давл.,
гПа
погр.,
м
21 апреля, ср
ср2100:00+3в227881 0.0 101760
03:00+3всв3878100 0.0 1014365
06:00+1св3898100 1.5 1010319
09:00+1св3899100 5.0 1007359
12:00+1в2699100 2.1 1004321
15:00+2ююз1299100 3.4 1003164
18:00+2юз3698100 0.3 1003395
21:00+1юз3997100 0.4 1004824
22 апреля, чт
чт2200:00+3ююз31096100 0.1 1005601
03:00+3ю3996100 0.1 1005341
06:00+2ю41194100 0.2 1005375
09:00+5ююз499199 1.6 1006565
12:00+10юз486762 0.0 10071316
15:00+12юз486464 0.8 10081493
18:00+12ююз25664 0.3 1008185
21:00+6юв3118882 0.3 1009221
23 апреля, пт
пт2300:00+6юв41388100 0.0 1007371
03:00+5ююв399794 0.1 1007309
06:00+6ююз3899100 2.7 1007506
09:00+7ююз467999 6.0 1008764
12:00+7ююз5984100 0.4 1009993
15:00+7ююз4776100 1.0 10101105
18:00+8ю3668100 0.0 1010870
21:00+4ююв2485100 0.2 101083
24 апреля, сб
сб2400:00+3ююз0190100 0.0 101013
03:00+3в1190100 0.0 100911
06:00+3зсз1186100 0.1 100845
09:00+3зсз1395100 1.0 1007313
12:00+3зсз3595100 1.4 1006522
15:00+3зсз3793100 2.3 1006643
18:00+5зсз3680100 0.3 1005986
21:00+3з3787100 0.4 1004300
25 апреля, вс
вс2500:00+1з2693100 0.0 1003237
03:00+1зюз2796100 0.0 1003213
06:000зюз2791100 0.0 1002278
09:00+3зюз3673100 0.0 1002815
12:00+6зюз3556100 0.2 10021561
15:00+7зюз4650100 0.8 10021740
18:00+6зюз455575 0.1 10031395
21:00+1юз248525 0.3 100493